Regional Weather Roundup
Issued by NWS Northern Indiana

Home | Current Version | Previous Version | Graphics & Text | Print | Product List | Glossary On
Versions: 1 2 3 4 5 6 7 8 9 10 11 12 13 14 15 16 17 18 19 20 21 22 23 24 25 26 27 28 29 30 31 32 33 34 35 36 37 38 39 40 41 42 43 44 45 46 47 48 49 50
000
ASUS43 KIWX 201210
RWRIWX

KIWX WEATHER ROUNDUP
NATIONAL WEATHER SERVICE NORTHERN INDIANA
800 AM EDT WED AUG 20 2014

NOTE: "FAIR" INDICATES FEW OR NO CLOUDS BELOW 12,000 FEET WITH NO
SIGNIFICANT WEATHER AND/OR OBSTRUCTIONS TO VISIBILITY.

* THESE STATIONS ARE NOT UNDER NWS QUALITY CONTROL. THEY ALSO MAY NOT
  REPORT WEATHER SUCH AS PRECIPITATION OR FOG.

INZ001>027-201300-
NORTHERN INDIANA

CITY           SKY/WX    TMP DP  RH WIND       PRES   REMARKS
GARY*          PTCLDY    68  66  94 MISG      29.85R
VALPARAISO     CLEAR     65  63  93 CALM      29.85S
6HR MIN TEMP:  63; 6HR MAX TEMP:  67;

MICHIGAN CITY* CLEAR     64  64 100 S3        29.85R FOG
LAPORTE*       CLEAR     64  64 100 CALM      29.86S FOG
6HR MIN TEMP:  62; 6HR MAX TEMP:  66;

KNOX*          CLEAR     64  62  93 CALM      29.85S
6HR MIN TEMP:  41; 6HR MAX TEMP:  86;

SOUTH BEND     NOT AVBL
ELKHART*       SUNNY     64  64 100 CALM      29.86R
GOSHEN         SUNNY     66  64  93 CALM      29.86R FOG
6HR MIN TEMP:  64; 6HR MAX TEMP:  68;

MONTICELLO*    CLEAR     64  64  99 CALM      29.87R
6HR MIN TEMP:  61; 6HR MAX TEMP:  65;

LOGANSPORT*    FOG       63  61  94 CALM      29.88S VSB<1/4
ROCHESTER*       N/A     68  68 100 CALM      29.87S FOG
WARSAW*        SUNNY     64  64 100 W3        29.86S FOG
ANGOLA*        SUNNY     66  59  77 W3        29.85S
FORT WAYNE     MOSUNNY   66  65  96 SW5       29.87R
6HR MIN TEMP:  65; 6HR MAX TEMP:  68;

HUNTINGTON*    SUNNY     66  65  98 SW3       29.86S
6HR MIN TEMP:  65; 6HR MAX TEMP:  67;

PERU/GRISSOM   SUNNY     66  66 100 W7        29.87R
6HR MIN TEMP:  62; 6HR MAX TEMP:  67;

MARION*        SUNNY     62  62  98 CALM      29.89S FOG
6HR MIN TEMP:  40; 6HR MAX TEMP:  87; 6HR PCP:  0.01;


$$
INZ028>050-201300-
CENTRAL INDIANA

CITY           SKY/WX    TMP DP  RH WIND       PRES   REMARKS
LAFAYETTE      CLOUDY    61  61 100 CALM      29.87R FOG
6HR MIN TEMP:  60; 6HR MAX TEMP:  66;

KOKOMO*        SUNNY     66  63  88 CALM      29.88S
6HR MIN TEMP:  63; 6HR MAX TEMP:  66;

MUNCIE*        SUNNY     66  63  90 SW6       29.89R
6HR MIN TEMP:  65; 6HR MAX TEMP:  70;

INDIANAPOLIS   FOG       67  66  97 SW7       29.89R VSB 1/8
6HR MIN TEMP:  64; 6HR MAX TEMP:  67;


$$
MIZ043>046-050>051-056>058-064>065-071>073-077>080-201300-
SOUTHWEST LOWER MICHIGAN

CITY           SKY/WX    TMP DP  RH WIND       PRES   REMARKS
BATTLE CREEK   MOSUNNY   66  64  93 SW3       29.85R FOG
6HR MIN TEMP:  65; 6HR MAX TEMP:  69;

BENTON HARBOR  SUNNY     67  65  93 CALM      29.83S FOG
6HR MIN TEMP:  63; 6HR MAX TEMP:  70;

COLDWATER*     CLOUDY    66  65  97 W5        29.85R FOG
6HR MIN TEMP:  65; 6HR MAX TEMP:  68;

HILLSDALE*     CLOUDY    67  67 100 W6        29.85S FOG
6HR MIN TEMP:  65; 6HR MAX TEMP:  67;

HOLLAND        SUNNY     66  64  93 CALM      29.84R
6HR MIN TEMP:  63; 6HR MAX TEMP:  69;

GRAND RAPIDS   MOSUNNY   67  67 100 W5        29.83R FOG
6HR MIN TEMP:  65; 6HR MAX TEMP:  69;

KALAMAZOO      PTSUNNY   67  65  93 CALM      29.84R FOG
6HR MIN TEMP:  65; 6HR MAX TEMP:  70;

STURGIS*       FOG       63  63 100 CALM      29.85R VSB<1/4
THREE RIVERS*  FOG       66  66 100 CALM      29.85S VSB 1/4
6HR MIN TEMP:  64; 6HR MAX TEMP:  69;


$$
OHZ001>008-015>018-024>025-201300-
NORTHWEST OHIO

CITY           SKY/WX    TMP DP  RH WIND       PRES   REMARKS
WAUSEON*       FAIR      66  66 100 W7        29.84S FOG
DEFIANCE       SUNNY     67  64  90 SW3       29.85R FOG
6HR MIN TEMP:  66; 6HR MAX TEMP:  69;

FINDLAY        SUNNY     69  65  86 SW6       29.85R
6HR MIN TEMP:  66; 6HR MAX TEMP:  69; 6HR PCP:  0.25;

TOLEDO EXPRESS SUNNY     67  66  97 W7        29.83R FOG
6HR MIN TEMP:  65; 6HR MAX TEMP:  67;

TOLEDO METCALF SUNNY     67  64  90 SW5       29.84R
6HR MIN TEMP:  66; 6HR MAX TEMP:  68;

LIMA           SUNNY     69  65  86 SW8       29.87R

$$
&&



USA.gov is the U.S. government's official web portal to all federal, state and local government web resources and services.